Location: Mainz-Finthen
(49.9906°N, 8.1713°E)
Time: 19:22:06
(UTC+00:00)

X-37B - Visible Passes

Search period start: 21 September 2021 00:00
Search period end: 01 October 2021 00:00
Orbit: 381 x 393 km, 45.0° (Epoch: 29 August)

Date Brightness Start Highest point End Pass type
(mag) Time Alt. Az. Time Alt. Az. Time Alt. Az.
21 Sep 3.4 04:21:04 10° SSE 04:22:03 11° SSE 04:23:02 10° SE visible
23 Sep 3.0 03:59:34 10° SSW 04:01:38 16° SSE 04:03:42 10° ESE visible
24 Sep 3.4 03:03:52 11° SE 03:03:52 11° SE 03:04:31 10° SE visible
24 Sep 2.2 04:36:44 10° SW 04:39:29 27° SSE 04:42:14 10° ESE visible
25 Sep 2.3 03:40:29 20° S 03:41:16 22° SSE 03:43:47 10° ESE visible
26 Sep 3.5 02:44:46 12° ESE 02:44:46 12° ESE 02:45:10 10° ESE visible
26 Sep 1.8 04:17:04 15° SW 04:19:11 31° S 04:22:03 10° ESE visible
27 Sep 2.1 03:21:20 26° SSE 03:21:20 26° SSE 03:23:42 10° ESE visible
28 Sep 1.6 03:57:54 26° SW 03:58:55 33° S 04:01:48 10° ESE visible
29 Sep 2.8 03:02:12 20° SE 03:02:12 20° SE 03:03:31 10° ESE visible
29 Sep 1.9 04:34:29 12° WSW 04:36:53 27° SSW 04:39:37 10° SE visible
30 Sep 1.7 03:38:49 31° S 03:38:49 31° S 03:41:29 10° ESE visible
